Location: ??????????
(42.1626°N, 44.1160°E)
Time: 09:30:18
(UTC+00:00)

Cosmos 1844 - Visible Passes

Search period start: 20 June 2021 00:00
Search period end: 30 June 2021 00:00
Orbit: 824 x 866 km, 70.9° (Epoch: 20 June)

Date Brightness Start Highest point End Pass type
(mag) Time Alt. Az. Time Alt. Az. Time Alt. Az.
20 Jun 4.2 18:45:25 10° NW 18:50:49 52° WSW 18:54:09 23° S visible
21 Jun 4.2 18:31:24 10° NNW 18:36:50 53° WSW 18:40:40 19° S visible
22 Jun 4.2 18:17:23 10° NNW 18:22:50 55° WSW 18:27:14 16° S visible
23 Jun 4.2 18:03:23 10° NNW 18:08:51 57° WSW 18:13:51 12° S visible
24 Jun 4.1 17:49:22 10° NNW 17:54:51 59° WSW 18:00:22 10° S visible
25 Jun 4.1 17:35:22 10° NNW 17:40:52 61° WSW 17:46:24 10° S visible
26 Jun 4.1 17:21:21 10° NNW 17:26:52 63° WSW 17:32:25 10° S visible
27 Jun 4.1 17:07:21 10° NNW 17:12:53 66° WSW 17:18:27 10° S visible
